FW7822 Weather Reports


time (UTC)temp
F
wind
direction
speed
knots
gust
knots
rain 1hr
in
rain 24hr
in
rain mn
in
humidity
%
barometer
mb
20260504050446 51 122 0.0 0.9 0.00 0.00 0.00 53 1005.8
20260504045946 51 48 0.0 1.7 0.00 0.00 0.00 54 1005.8
20260504045446 51 0 0.0 0.0 0.00 0.00 0.00 53 1005.8
20260504044946 52 113 0.0 0.9 0.00 0.00 0.00 52 1005.9
20260504044446 52 138 0.0 0.9 0.00 0.00 0.00 51 1005.9
20260504043946 52 158 0.0 0.9 0.00 0.00 0.00 50 1005.9
20260504043446 52 68 0.0 0.9 0.00 0.00 0.00 52 1006.0
20260504042947 52 22 0.0 0.9 0.00 0.00 0.00 51 1006.1
20260504042446 52 155 0.9 1.7 0.00 0.00 0.00 54 1006.2
20260504041946 52 59 0.0 0.9 0.00 0.00 0.00 52 1006.2
20260504041446 52 5 0.0 0.9 0.00 0.00 0.00 52 1006.3
20260504040947 53 176 0.0 0.9 0.00 0.00 0.00 54 1006.3
20260504040446 53 196 0.0 0.9 0.00 0.00 0.00 50 1006.3
20260504035946 53 192 0.0 0.9 0.00 0.00 0.00 50 1006.3
20260504035446 53 42 0.0 1.7 0.00 0.00 0.00 49 1006.4
20260504034946 53 176 0.9 0.9 0.00 0.00 0.00 53 1006.6
20260504034447 53 79 0.9 1.7 0.00 0.00 0.00 52 1006.6
20260504033946 55 105 0.9 1.7 0.00 0.00 0.00 52 1006.7
20260504033447 56 72 0.0 1.7 0.00 0.00 0.00 47 1006.7
20260504032946 57 92 0.9 1.7 0.00 0.00 0.00 47 1006.7
20260504032447 58 33 0.0 0.9 0.00 0.00 0.00 44 1006.9
20260504031947 60 78 0.9 1.7 0.00 0.00 0.00 43 1006.9
20260504031446 62 48 0.9 1.7 0.00 0.00 0.00 37 1006.9
20260504030948 61 331 1.7 3.5 0.00 0.00 0.00 35 1007.0
20260504030447 61 4 1.7 2.6 0.00 0.00 0.00 36 1007.0
20260504025946 61 0 0.9 1.7 0.00 0.00 0.00 37 1006.9
20260504025446 61 355 0.9 1.7 0.00 0.00 0.00 37 1006.9
20260504024946 61 26 1.7 2.6 0.00 0.00 0.00 37 1006.9
20260504024448 62 10 0.9 2.6 0.00 0.00 0.00 36 1006.7
20260504023947 61 339 1.7 2.6 0.00 0.00 0.00 36 1006.6
20260504023447 61 7 0.9 1.7 0.00 0.00 0.00 37 1006.6
20260504022946 61 19 0.9 1.7 0.00 0.00 0.00 36 1006.6
20260504022446 62 14 0.9 1.7 0.00 0.00 0.00 37 1006.6
20260504021946 62 35 1.7 2.6 0.00 0.00 0.00 37 1006.6
20260504021447 63 8 0.9 1.7 0.00 0.00 0.00 36 1006.6
20260504020947 63 334 1.7 2.6 0.00 0.00 0.00 35 1006.6
20260504020446 63 336 1.7 3.5 0.00 0.00 0.00 35 1006.5
20260504015947 63 313 2.6 3.5 0.00 0.00 0.00 34 1006.5
20260504015446 63 317 1.7 3.5 0.00 0.00 0.00 34 1006.4
20260504014946 63 343 1.7 3.5 0.00 0.00 0.00 34 1006.4
20260504014446 64 340 1.7 3.5 0.00 0.00 0.00 35 1006.4
20260504013946 64 319 1.7 3.5 0.00 0.00 0.00 34 1006.3
20260504013446 65 356 1.7 2.6 0.00 0.00 0.00 34 1006.3
20260504012946 65 349 1.7 5.2 0.00 0.00 0.00 33 1006.2
20260504012446 65 327 1.7 3.5 0.00 0.00 0.00 33 1006.1
20260504011946 66 345 2.6 3.5 0.00 0.00 0.00 33 1006.1
20260504011446 66 337 1.7 4.3 0.00 0.00 0.00 33 1006.1
20260504010946 67 331 1.7 3.5 0.00 0.00 0.00 33 1006.0
20260504010447 68 348 1.7 3.5 0.00 0.00 0.00 32 1006.0
20260504005946 68 12 1.7 3.5 0.00 0.00 0.00 32 1006.0
20260504005447 69 28 1.7 4.3 0.00 0.00 0.00 32 1006.0
20260504004946 70 41 0.9 2.6 0.00 0.00 0.00 31 1005.9
20260504004446 71 4 0.9 1.7 0.00 0.00 0.00 31 1005.9
20260504003946 71 19 0.9 1.7 0.00 0.00 0.00 30 1005.9
20260504003446 72 16 0.0 0.9 0.00 0.00 0.00 29 1005.9
20260504002947 72 298 0.9 1.7 0.00 0.00 0.00 29 1005.9
20260504002446 72 305 1.7 2.6 0.00 0.00 0.00 28 1005.9
20260504001946 73 270 0.9 2.6 0.00 0.00 0.00 28 1005.8
20260504001446 73 338 0.9 2.6 0.00 0.00 0.00 26 1005.8
20260504000946 73 288 1.7 4.3 0.00 0.00 0.00 26 1005.8
20260504000446 74 280 1.7 3.5 0.00 0.00 0.00 26 1005.8
20260503235946 74 233 1.7 2.6 0.00 0.00 0.00 26 1005.8
20260503235446 74 294 0.9 2.6 0.00 0.00 0.00 26 1005.8
20260503234946 74 302 2.6 5.2 0.00 0.00 0.00 25 1005.8
20260503234446 74 304 3.5 6.1 0.00 0.00 0.00 25 1005.8
20260503233946 74 296 3.5 8.7 0.00 0.00 0.00 25 1005.8
20260503233446 74 277 3.5 6.1 0.00 0.00 0.00 24 1005.7
20260503232947 75 304 2.6 4.3 0.00 0.00 0.00 25 1005.7
20260503232448 75 273 3.5 5.2 0.00 0.00 0.00 24 1005.7
20260503231946 75 314 3.5 5.2 0.00 0.00 0.00 24 1005.7
20260503231446 75 321 2.6 6.1 0.00 0.00 0.00 24 1005.7
20260503230946 75 290 3.5 5.2 0.00 0.00 0.00 25 1005.7
20260503230446 75 303 0.9 1.7 0.00 0.00 0.00 25 1005.7
20260503225949 76 295 3.5 7.8 0.00 0.00 0.00 23 1005.7
20260503225446 76 286 2.6 6.1 0.00 0.00 0.00 24 1005.7
20260503224946 76 287 1.7 3.5 0.00 0.00 0.00 24 1005.6
20260503224446 75 303 3.5 7.0 0.00 0.00 0.00 23 1005.7
20260503223947 75 8 3.5 6.1 0.00 0.00 0.00 23 1005.6
20260503223446 76 356 4.3 7.8 0.00 0.00 0.00 23 1005.7
20260503222946 76 291 3.5 5.2 0.00 0.00 0.00 24 1005.6
20260503222446 75 343 3.5 4.3 0.00 0.00 0.00 24 1005.5
20260503221947 75 317 2.6 4.3 0.00 0.00 0.00 24 1005.5
20260503221448 75 355 3.5 6.1 0.00 0.00 0.00 24 1005.5
20260503220946 76 356 4.3 7.0 0.00 0.00 0.00 23 1005.5
20260503220446 76 313 3.5 5.2 0.00 0.00 0.00 25 1005.5
20260503215946 76 339 2.6 5.2 0.00 0.00 0.00 25 1005.5
20260503215446 76 356 3.5 7.0 0.00 0.00 0.00 24 1005.4
20260503214946 75 356 2.6 5.2 0.00 0.00 0.00 24 1005.4
20260503214446 76 347 5.2 7.0 0.00 0.00 0.00 24 1005.4
20260503213946 76 314 3.5 6.1 0.00 0.00 0.00 25 1005.5
20260503213446 76 294 2.6 6.1 0.00 0.00 0.00 26 1005.4
20260503212946 76 341 2.6 6.1 0.00 0.00 0.00 26 1005.4
20260503212446 76 355 1.7 3.5 0.00 0.00 0.00 27 1005.5
20260503211947 76 332 2.6 7.8 0.00 0.00 0.00 26 1005.5
20260503211446 76 311 4.3 5.2 0.00 0.00 0.00 26 1005.6
20260503210946 76 285 2.6 4.3 0.00 0.00 0.00 27 1005.7
20260503210446 76 303 3.5 7.8 0.00 0.00 0.00 26 1005.6
20260503205946 76 334 5.2 9.6 0.00 0.00 0.00 24 1005.6
20260503205446 76 291 2.6 5.2 0.00 0.00 0.00 26 1005.6
20260503204946 76 311 4.3 5.2 0.00 0.00 0.00 27 1005.7
20260503204447 76 307 3.5 7.0 0.00 0.00 0.00 27 1005.7
20260503203947 76 299 3.5 5.2 0.00 0.00 0.00 27 1005.7
20260503203446 76 277 5.2 7.8 0.00 0.00 0.00 27 1005.8
20260503202946 76 345 2.6 4.3 0.00 0.00 0.00 28 1005.8
20260503202446 76 344 2.6 5.2 0.00 0.00 0.00 29 1005.9
20260503201946 76 320 3.5 6.1 0.00 0.00 0.00 27 1005.9
20260503201446 76 328 2.6 4.3 0.00 0.00 0.00 27 1005.9
20260503200946 75 318 3.5 6.1 0.00 0.00 0.00 29 1005.9
20260503200446 76 351 1.7 4.3 0.00 0.00 0.00 29 1005.8
20260503195946 76 289 1.7 3.5 0.00 0.00 0.00 29 1005.9
20260503195447 76 298 4.3 7.0 0.00 0.00 0.00 28 1005.9
20260503194946 75 3 2.6 5.2 0.00 0.00 0.00 32 1005.9
20260503194446 75 290 4.3 7.0 0.00 0.00 0.00 28 1006.0
20260503193946 75 299 3.5 6.1 0.00 0.00 0.00 29 1005.8
20260503193447 75 330 4.3 7.8 0.00 0.00 0.00 28 1005.9
20260503192947 75 302 4.3 7.0 0.00 0.00 0.00 29 1005.9
20260503192446 75 284 3.5 6.1 0.00 0.00 0.00 29 1005.9
20260503191946 74 316 3.5 7.0 0.00 0.00 0.00 29 1005.9
20260503191446 75 350 5.2 7.8 0.00 0.00 0.00 31 1005.8
20260503190947 75 306 5.2 9.6 0.00 0.00 0.00 29 1006.0
20260503190446 74 337 3.5 5.2 0.00 0.00 0.00 31 1005.9
20260503185946 75 325 3.5 7.8 0.00 0.00 0.00 32 1006.1
20260503185447 75 311 4.3 8.7 0.00 0.00 0.00 31 1005.9
20260503184946 75 326 4.3 7.8 0.00 0.00 0.00 30 1006.0
20260503184447 75 304 6.1 8.7 0.00 0.00 0.00 29 1005.9
20260503183946 75 314 5.2 7.8 0.00 0.00 0.00 29 1006.0
20260503183446 74 318 3.5 7.8 0.00 0.00 0.00 30 1005.9
20260503182947 74 295 2.6 4.3 0.00 0.00 0.00 31 1006.1
20260503182447 74 307 5.2 7.8 0.00 0.00 0.00 30 1006.1
20260503181946 74 269 4.3 11.3 0.00 0.00 0.00 30 1006.1
20260503181447 74 321 1.7 5.2 0.00 0.00 0.00 31 1006.2
20260503180948 74 299 1.7 5.2 0.00 0.00 0.00 32 1006.1
20260503180447 73 255 2.6 4.3 0.00 0.00 0.00 33 1006.2
20260503175946 73 257 5.2 7.8 0.00 0.00 0.00 32 1006.3
20260503175446 73 267 3.5 5.2 0.00 0.00 0.00 34 1006.4
20260503174947 72 307 4.3 7.0 0.00 0.00 0.00 33 1006.5
20260503174446 72 259 6.1 10.4 0.00 0.00 0.00 33 1006.5
20260503173946 72 266 3.5 5.2 0.00 0.00 0.00 34 1006.6
20260503173447 72 275 4.3 8.7 0.00 0.00 0.00 35 1006.6
20260503172947 71 275 3.5 7.8 0.00 0.00 0.00 35 1006.7
20260503172447 71 279 3.5 6.1 0.00 0.00 0.00 35 1006.9
20260503171947 71 258 4.3 7.8 0.00 0.00 0.00 36 1006.9
20260503171446 70 274 5.2 7.8 0.00 0.00 0.00 35 1007.0
20260503170947 70 249 4.3 7.8 0.00 0.00 0.00 35 1006.9
20260503170446 69 268 5.2 7.8 0.00 0.00 0.00 36 1007.1
20260503150947 62 187 3.5 6.1 0.00 0.00 0.00 41 1007.7
20260503150447 61 266 3.5 7.8 0.00 0.00 0.00 41 1007.8
20260503130946 54 172 2.6 4.3 0.00 0.00 0.00 48 1009.3
20260503130448 54 168 2.6 4.3 0.00 0.00 0.00 48 1009.3
20260503110446 53 127 2.6 4.3 0.00 0.00 0.00 50 1010.0
20260503090446 53 148 1.7 3.5 0.00 0.00 0.00 45 1011.8
20260503081446 52 171 1.7 2.6 0.00 0.00 0.00 48 1012.6
20260503080947 52 168 3.5 4.3 0.00 0.00 0.00 48 1012.4
20260503080446 52 174 2.6 3.5 0.00 0.00 0.00 49 1012.4
20260503072446 52 179 1.7 3.5 0.00 0.00 0.00 49 1013.0
20260503071946 52 176 1.7 3.5 0.00 0.00 0.00 48 1013.0
20260503071448 52 178 2.6 4.3 0.00 0.00 0.00 49 1013.0
20260503070946 52 198 1.7 2.6 0.00 0.00 0.00 50 1013.0
20260503070447 52 217 1.7 2.6 0.00 0.00 0.00 48 1013.1